Change the Weather History Date:

Friday, September 6, 2013

  Actual Average Record
Temperature  
Mean Temperature 69 °F 68 °F  
Max Temperature 83 °F 79 °F 90 °F (1998)
Min Temperature 55 °F 57 °F 41 °F (2000)
Degree Days  
Heating Degree Days 0 1  
Month to date heating degree days 1 6  
Since 1 July heating degree days 27 15  
Cooling Degree Days 4 4  
Month to date cooling degree days 16 28  
Year to date cooling degree days 643 752  
Growing Degree Days 18 (Base 50)    
Moisture  
Dew Point 59 °F    
Average Humidity 69    
Maximum Humidity 87    
Minimum Humidity 53    
Precipitation  
Precipitation 0.00 in 0.11 in 0.50 in (2001)
Month to date precipitation 0.86 0.67  
Year to date precipitation 28.22 26.30  
Sea Level Pressure  
Sea Level Pressure 30.14 in    
Wind  
Wind Speed 5 mph (SSE)    
Max Wind Speed 12 mph    
Max Gust Speed 15 mph    
Visibility 10 miles    
Events      
T = Trace of Precipitation, MM = Missing Value Source: NWS Daily Summary

Daily Weather History Graph

Daily Weather History Graph

Search for Another Location

Airport or City:

Trip Planner

Search our weather history database for the weather conditions in past years. The results will help you decide how hot, cold, wet, or windy it might be!

Date:

Astronomy

Sep. 06, 2013 Rise Set
Actual Time 6:24 AM CDT 7:17 PM CDT
Civil Twilight 5:55 AM CDT 7:45 PM CDT
Nautical Twilight 5:22 AM CDT 8:19 PM CDT
Astronomical Twilight 4:46 AM CDT 8:54 PM CDT
Moon 7:38 AM CDT (9/6) 7:39 PM CDT (9/6)
Length of Visible Light 13h 50m
Length of Day
12h 53m
New Moon, 2% of the Moon is Illuminated
Sep 6
New Moon
Sep 12
First Quarter
Sep 19
Full
Sep 26
Last Quarter
Oct 4
New

Hourly Weather History & Observations

Time (CDT) Temp. Heat Index Dew Point Humidity Pressure Visibility Wind Dir Wind Speed Gust Speed Precip Events Conditions
12:52 AM 55.0 °F - 50.0 °F 83% 30.22 in 10.0 mi NNE 3.5 mph - N/A   Clear
1:52 AM 57.0 °F - 51.1 °F 81% 30.21 in 10.0 mi North 3.5 mph - N/A   Partly Cloudy
2:52 AM 57.0 °F - 52.0 °F 83% 30.21 in 10.0 mi NNE 3.5 mph - N/A   Scattered Clouds
3:52 AM 55.9 °F - 52.0 °F 87% 30.21 in 10.0 mi NNE 3.5 mph - N/A   Clear
4:52 AM 60.1 °F - 55.0 °F 83% 30.22 in 10.0 mi East 4.6 mph - N/A   Overcast
5:52 AM 61.0 °F - 50.0 °F 67% 30.22 in 10.0 mi Calm Calm - N/A   Mostly Cloudy
6:52 AM 61.0 °F - 52.0 °F 72% 30.22 in 10.0 mi Calm Calm - N/A   Overcast
7:52 AM 63.0 °F - 51.1 °F 65% 30.22 in 10.0 mi SSE 3.5 mph - N/A   Mostly Cloudy
8:52 AM 66.0 °F - 51.1 °F 59% 30.20 in 10.0 mi SSE 5.8 mph - N/A   Mostly Cloudy
9:52 AM 70.0 °F - 53.1 °F 55% 30.19 in 10.0 mi South 6.9 mph - N/A   Clear
10:52 AM 75.0 °F - 57.0 °F 53% 30.19 in 10.0 mi South 6.9 mph - N/A   Clear
11:52 AM 77.0 °F - 60.1 °F 56% 30.18 in 10.0 mi South 6.9 mph - N/A   Clear
12:52 PM 80.1 °F 81.2 °F 62.1 °F 54% 30.15 in 10.0 mi South 5.8 mph - N/A   Clear
1:52 PM 81.0 °F 82.5 °F 64.0 °F 56% 30.13 in 10.0 mi South 6.9 mph - N/A   Mostly Cloudy
2:52 PM 82.9 °F 84.6 °F 64.9 °F 54% 30.10 in 10.0 mi SSW 4.6 mph - N/A   Clear
3:52 PM 82.9 °F 84.6 °F 64.9 °F 54% 30.08 in 10.0 mi SW 9.2 mph - N/A   Clear
4:52 PM 82.9 °F 85.4 °F 66.9 °F 58% 30.06 in 10.0 mi South 8.1 mph - N/A   Scattered Clouds
5:52 PM 82.0 °F 84.1 °F 66.0 °F 58% 30.05 in 10.0 mi SSW 8.1 mph - N/A   Clear
6:52 PM 79.0 °F - 66.0 °F 64% 30.04 in 10.0 mi Calm Calm - N/A   Clear
7:52 PM 73.0 °F - 66.0 °F 79% 30.04 in 10.0 mi Calm Calm - N/A   Clear
8:52 PM 70.0 °F - 66.0 °F 87% 30.04 in 10.0 mi South 3.5 mph - N/A   Clear
9:52 PM 69.1 °F - 64.9 °F 87% 30.03 in 10.0 mi South 3.5 mph - N/A   Clear
10:52 PM 69.1 °F - 64.9 °F 87% 30.02 in 10.0 mi South 3.5 mph - N/A   Clear
11:52 PM 69.1 °F - 64.0 °F 84% 30.02 in 10.0 mi South 3.5 mph - N/A   Clear